Weather History for Bangor, ME

Change the Weather History Date:

Tuesday, December 4, 2012

  Actual Average Record
Temperature  
Mean Temperature 36 °F 30 °F  
Max Temperature 49 °F 38 °F 65 °F (1982)
Min Temperature 22 °F 21 °F -24 °F (1940)
Degree Days  
Heating Degree Days 29 35  
Month to date heating degree days 135 138  
Since 1 July heating degree days 1750 1807  
Cooling Degree Days 0 0  
Month to date cooling degree days 0 0  
Year to date cooling degree days 395 318  
Moisture  
Dew Point 36 °F    
Average Humidity 91    
Maximum Humidity 100    
Minimum Humidity 82    
Precipitation  
Precipitation T in 0.13 in 2.38 in (1990)
Month to date precipitation 0.36 0.53  
Year to date precipitation 39.07 38.98  
Snow  
Snow 0.00 in 0.40 in 4.50 in (1970)
Month to date snowfall T 1.4  
Since 1 July snowfall 4.0 3.8  
Snow Depth 0.00 in    
Sea Level Pressure  
Sea Level Pressure 30.19 in    
Wind  
Wind Speed 3 mph (South)    
Max Wind Speed 17 mph    
Max Gust Speed 24 mph    
Visibility 7 miles    
Events      
T = Trace of Precipitation, MM = Missing Value Source: NWS Daily Summary

Daily Weather History Graph

Daily Weather History Graph

Search for Another Location

Airport:

Trip Planner

Search our weather history database for the weather conditions in past years. The results will help you decide how hot, cold, wet, or windy it might be!

Date:

Astronomy

Dec. 04, 2012 Rise Set
Actual Time 6:56 AM EST 3:54 PM EST
Civil Twilight 6:23 AM EST 4:28 PM EST
Nautical Twilight 5:46 AM EST 5:04 PM EST
Astronomical Twilight 5:11 AM EST 5:40 PM EST
Moon 9:48 PM EST (12/4) 10:40 AM EST (12/4)
Length of Visible Light 10h 04m
Length of Day
8h 58m
Waning Gibbous, 69% of the Moon is Illuminated
Dec 4
Waning Gibbous
Dec 6
Last Quarter
Dec 13
New
Dec 20
First Quarter
Dec 28
Full

Hourly Weather History & Observations

Time (EST) Temp. Windchill Dew Point Humidity Pressure Visibility Wind Dir Wind Speed Gust Speed Precip Events Conditions
12:53 AM 30.2 °F - 28.4 °F 93% 30.31 in 10.0 mi Calm Calm - N/A   Scattered Clouds
1:53 AM 27.0 °F - 25.0 °F 92% 30.32 in 9.0 mi Calm Calm - N/A   Clear
2:41 AM 26.6 °F - 24.8 °F 93% 30.32 in 1.8 mi Calm Calm - N/A   Clear
2:44 AM 24.8 °F - 24.8 °F 100% 30.31 in 10.0 mi Calm Calm - N/A   Clear
2:53 AM 25.0 °F - 24.1 °F 96% 30.33 in 10.0 mi Calm Calm - N/A   Clear
3:44 AM 26.6 °F - 24.8 °F 93% 30.29 in 10.0 mi Calm Calm - N/A   Partly Cloudy
3:53 AM 25.0 °F - 25.0 °F 100% 30.31 in 3.0 mi Calm Calm - N/A   Scattered Clouds
4:53 AM 24.1 °F - 23.0 °F 96% 30.32 in 8.0 mi Calm Calm - N/A   Clear
5:53 AM 24.1 °F - 23.0 °F 96% 30.33 in 8.0 mi Calm Calm - N/A   Partly Cloudy
6:41 AM 24.8 °F - 24.8 °F 100% 30.32 in 9.0 mi Calm Calm - N/A   Overcast
6:53 AM 27.0 °F - 25.0 °F 92% 30.33 in 9.0 mi Calm Calm - N/A   Overcast
7:53 AM 30.0 °F - 28.9 °F 96% 30.33 in 8.0 mi Calm Calm - N/A   Overcast
8:53 AM 30.9 °F - 30.0 °F 96% 30.32 in 9.0 mi Calm Calm - N/A   Overcast
9:53 AM 34.0 °F 31.0 °F 32.0 °F 92% 30.31 in 10.0 mi South 3.5 mph - N/A   Overcast
10:53 AM 37.0 °F 32.4 °F 34.0 °F 89% 30.28 in 10.0 mi South 5.8 mph - N/A   Overcast
11:53 AM 37.9 °F 32.7 °F 35.1 °F 89% 30.26 in 10.0 mi SSW 6.9 mph - N/A   Overcast
12:32 PM 39.2 °F 35.9 °F 35.6 °F 87% 30.23 in 10.0 mi South 4.6 mph - N/A   Overcast
12:53 PM 39.0 °F - 36.0 °F 89% 30.23 in 10.0 mi Calm Calm - N/A   Overcast
1:53 PM 39.9 °F 36.7 °F 37.0 °F 89% 30.19 in 9.0 mi South 4.6 mph - N/A   Overcast
2:31 PM 42.8 °F 39.3 °F 39.2 °F 87% 30.17 in 10.0 mi South 5.8 mph - N/A   Overcast
2:53 PM 42.1 °F 39.2 °F 39.0 °F 89% 30.18 in 10.0 mi SSW 4.6 mph - N/A   Overcast
3:53 PM 43.0 °F 40.3 °F 41.0 °F 93% 30.17 in 10.0 mi South 4.6 mph - 0.00 in   Overcast
4:43 PM 44.6 °F 39.7 °F 42.8 °F 93% 30.14 in 7.0 mi South 9.2 mph - N/A   Overcast
4:53 PM 45.0 °F 40.6 °F 43.0 °F 93% 30.15 in 8.0 mi South 8.1 mph - N/A   Overcast
5:41 PM 44.6 °F 38.8 °F 44.6 °F 100% 30.12 in 2.5 mi South 11.5 mph - 0.00 in   Light Drizzle
5:53 PM 46.0 °F 41.4 °F 45.0 °F 96% 30.12 in 2.5 mi South 9.2 mph 18.4 mph 0.00 in   Light Drizzle
6:53 PM 46.0 °F 39.6 °F 46.0 °F 100% 30.11 in 2.0 mi South 15.0 mph 21.9 mph 0.00 in   Light Drizzle
7:53 PM 46.9 °F - 46.0 °F 97% 30.08 in 3.0 mi South 10.4 mph 19.6 mph 0.00 in   Light Drizzle
8:34 PM 46.4 °F 40.4 °F 46.4 °F 100% 30.05 in 2.5 mi South 13.8 mph - 0.00 in   Light Drizzle
8:53 PM 46.9 °F - 46.9 °F 100% 30.04 in 2.5 mi South 12.7 mph 20.7 mph 0.00 in   Light Drizzle
9:53 PM 48.0 °F - 46.9 °F 96% 30.01 in 2.5 mi South 12.7 mph - 0.00 in   Light Drizzle
10:00 PM 48.2 °F - 48.2 °F 100% 30.00 in 3.0 mi South 12.7 mph 19.6 mph 0.00 in   Light Drizzle
10:26 PM 48.2 °F - 48.2 °F 100% 29.99 in 2.5 mi South 13.8 mph 20.7 mph 0.00 in   Light Drizzle
10:31 PM 48.2 °F - 48.2 °F 100% 29.99 in 1.8 mi South 11.5 mph 18.4 mph 0.00 in   Light Drizzle
10:53 PM 48.0 °F - 48.0 °F 100% 29.98 in 1.8 mi South 12.7 mph 19.6 mph 0.00 in   Light Drizzle
11:53 PM 48.9 °F - 48.0 °F 97% 29.95 in 1.8 mi South 13.8 mph 19.6 mph 0.00 in   Light Drizzle